TimeEST,TemperatureF,Dew PointF,Humidity,Sea Level PressureIn,VisibilityMPH,Wind Direction,Wind SpeedMPH,Gust SpeedMPH,PrecipitationIn,Events,Conditions,WindDirDegrees,DateUTC
12:53 AM,41.0,32.0,70,30.15,10.0,SSE,5.8,-,N/A,,Clear,160,2012-11-20 05:53:00
1:53 AM,41.0,33.1,73,30.14,10.0,SSE,6.9,-,N/A,,Clear,160,2012-11-20 06:53:00
2:53 AM,39.9,32.0,73,30.14,10.0,SSE,6.9,-,N/A,,Clear,160,2012-11-20 07:53:00
3:53 AM,42.1,34.0,73,30.13,10.0,SSE,8.1,-,N/A,,Overcast,160,2012-11-20 08:53:00
4:53 AM,43.0,34.0,71,30.12,10.0,South,5.8,-,N/A,,Scattered Clouds,180,2012-11-20 09:53:00
5:53 AM,43.0,34.0,71,30.12,9.0,Calm,Calm,-,N/A,,Overcast,0,2012-11-20 10:53:00
6:53 AM,43.0,35.1,74,30.12,8.0,SSE,5.8,-,N/A,,Overcast,160,2012-11-20 11:53:00
7:53 AM,44.1,35.1,71,30.13,8.0,South,4.6,-,N/A,,Overcast,170,2012-11-20 12:53:00
8:53 AM,46.0,37.0,71,30.13,6.0,ESE,4.6,-,N/A,,Haze,110,2012-11-20 13:53:00
9:53 AM,46.9,37.0,68,30.13,6.0,SSE,6.9,-,0.00,,Haze,160,2012-11-20 14:53:00
10:53 AM,48.9,37.0,64,30.13,6.0,South,6.9,-,N/A,,Haze,170,2012-11-20 15:53:00
11:53 AM,50.0,37.9,63,30.12,6.0,SSE,4.6,-,N/A,,Haze,150,2012-11-20 16:53:00
12:53 PM,51.1,39.0,63,30.10,7.0,SE,3.5,-,N/A,,Overcast,140,2012-11-20 17:53:00
1:53 PM,53.1,39.0,59,30.09,8.0,South,6.9,-,N/A,,Overcast,170,2012-11-20 18:53:00
2:53 PM,54.0,39.0,57,30.10,10.0,SW,3.5,-,N/A,,Overcast,230,2012-11-20 19:53:00
3:53 PM,53.1,39.9,61,30.11,8.0,Calm,Calm,-,N/A,,Overcast,0,2012-11-20 20:53:00
4:53 PM,52.0,41.0,66,30.12,7.0,Calm,Calm,-,N/A,,Overcast,0,2012-11-20 21:53:00
5:53 PM,52.0,39.0,61,30.13,9.0,Calm,Calm,-,N/A,,Overcast,0,2012-11-20 22:53:00
6:53 PM,48.9,39.0,69,30.14,8.0,Calm,Calm,-,N/A,,Overcast,0,2012-11-20 23:53:00
7:53 PM,48.9,39.9,71,30.15,8.0,Calm,Calm,-,N/A,,Overcast,0,2012-11-21 00:53:00
8:53 PM,48.9,39.9,71,30.16,7.0,Calm,Calm,-,N/A,,Overcast,0,2012-11-21 01:53:00
9:53 PM,48.9,39.9,71,30.17,9.0,Calm,Calm,-,N/A,,Overcast,0,2012-11-21 02:53:00
10:53 PM,50.0,39.9,68,30.17,7.0,WNW,3.5,-,N/A,,Overcast,300,2012-11-21 03:53:00
11:53 PM,48.0,41.0,77,30.17,6.0,Calm,Calm,-,N/A,,Haze,0,2012-11-21 04:53:00